Weather History for Nassau, Bahamas

Change the Weather History Date:

Friday, February 7, 2014

  Actual Average Record
Temperature  
Mean Temperature 77 °F -  
Max Temperature 85 °F 78 °F 84 °F (2003)
Min Temperature 69 °F 62 °F 55 °F (2006)
Cooling Degree Days 12    
Growing Degree Days 27 (Base 50)    
Moisture  
Dew Point 70 °F    
Average Humidity 82    
Maximum Humidity 100    
Minimum Humidity 66    
Precipitation  
Precipitation 0.00 in 0.05 in - ()
Sea Level Pressure  
Sea Level Pressure 30.09 in    
Wind  
Wind Speed 2 mph ()    
Max Wind Speed 7 mph    
Max Gust Speed -    
Visibility 6.6 miles    
Events      
Averages and records for this station are not official NWS values.
T = Trace of Precipitation, MM = Missing Value Source: Averaged Metar Reports

Daily Weather History Graph

Daily Weather History Graph

Search for Another Location

Airport:

Trip Planner

Search our weather history database for the weather conditions in past years. The results will help you decide how hot, cold, wet, or windy it might be!

Date:

Astronomy

Feb. 07, 2014 Rise Set
Actual Time 6:49 AM EST 5:58 PM EST
Civil Twilight 6:25 AM EST 6:22 PM EST
Nautical Twilight 5:58 AM EST 6:49 PM EST
Astronomical Twilight 5:31 AM EST 7:16 PM EST
Moon 12:14 PM EST (2/7) 12:58 AM EST (2/7)
Length of Visible Light 11h 56m
Length of Day
11h 09m
First Quarter, 59% of the Moon is Illuminated
Feb 7
First Quarter
Feb 14
Full
Feb 22
Last Quarter
Mar 1
New
Mar 8
First Quarter

Hourly Weather History & Observations

Time (EST) Temp. Heat Index Dew Point Humidity Pressure Visibility Wind Dir Wind Speed Gust Speed Precip Events Conditions
12:00 AM 73.4 °F - 66.2 °F 78% 30.11 in 6.2 mi Calm Calm - N/A   Partly Cloudy
1:00 AM 71 °F - 70 °F 94% 30.10 in 8 mi Calm Calm - -   Scattered Clouds
1:00 AM 71.6 °F - 69.8 °F 94% 30.09 in 6.2 mi Calm Calm - N/A   Partly Cloudy
2:00 AM 73.4 °F - 66.2 °F 78% 30.11 in 6.2 mi Calm Calm - N/A   Scattered Clouds
3:00 AM 71.6 °F - 68.0 °F 88% 30.08 in 6.2 mi Calm Calm - N/A   Scattered Clouds
4:00 AM 70 °F - 69 °F 94% 30.08 in 8 mi Calm Calm - -   Scattered Clouds
4:00 AM 69.8 °F - 68.0 °F 94% 30.08 in 6.2 mi Calm Calm - N/A   Partly Cloudy
5:00 AM 71.6 °F - 69.8 °F 94% 30.08 in 6.2 mi Calm Calm - N/A   Partly Cloudy
6:00 AM 71.6 °F - 69.8 °F 94% 30.09 in 6.2 mi East 3.5 mph - N/A   Partly Cloudy
7:00 AM 72 °F - 71 °F 97% 30.11 in 8 mi East 3.5 mph - -   Scattered Clouds
7:00 AM 71.6 °F - 71.6 °F 100% 30.11 in 6.2 mi East 3.5 mph - N/A   Partly Cloudy
8:00 AM 75.2 °F - 69.8 °F 83% 30.12 in 6.2 mi North - - N/A   Partly Cloudy
9:00 AM 78.8 °F - 69.8 °F 74% 30.14 in 6.2 mi SE 3.5 mph - N/A   Partly Cloudy
10:00 AM 82.4 °F 89.5 °F 75.2 °F 79% 30.15 in 6.2 mi East 5.8 mph - N/A   Scattered Clouds
11:00 AM 80.6 °F 83.9 °F 69.8 °F 70% 30.14 in - South 6.9 mph - N/A   Scattered Clouds
12:00 PM 82.4 °F 86.3 °F 69.8 °F 66% 30.12 in 6.2 mi SSE 6.9 mph - N/A   Scattered Clouds
1:00 PM 84.2 °F 90.9 °F 73.4 °F 70% 30.10 in 6.2 mi South 6.9 mph - N/A   Scattered Clouds
2:00 PM 82.4 °F 86.3 °F 69.8 °F 66% 30.08 in 6.2 mi SE 3.5 mph - N/A   Scattered Clouds
3:00 PM 82.4 °F 86.3 °F 69.8 °F 66% 30.05 in 6.2 mi SSE 6.9 mph - N/A   Scattered Clouds
4:00 PM 84.2 °F 90.9 °F 73.4 °F 70% 30.04 in 6.2 mi ESE 5.8 mph - N/A   Partly Cloudy
5:00 PM 80.6 °F 83.9 °F 69.8 °F 70% 30.05 in 6.2 mi SE 5.8 mph - N/A   Partly Cloudy
6:00 PM 78.8 °F - 69.8 °F 74% 30.06 in 6.2 mi SE 6.9 mph - N/A   Partly Cloudy
7:00 PM 78 °F - 74 °F 84% 30.04 in 9 mi SSE 3.5 mph - -   Partly Cloudy
8:00 PM 77.0 °F - 69.8 °F 78% 30.09 in 6.2 mi East 2.3 mph - N/A   Partly Cloudy
9:00 PM 75.2 °F - 69.8 °F 83% 30.09 in 6.2 mi East 2.3 mph - N/A   Partly Cloudy
10:00 PM 75 °F - 73 °F 92% 30.11 in 9 mi East 2.3 mph - -   Scattered Clouds
10:00 PM 75.2 °F - 73.4 °F 94% 30.10 in 6.2 mi East 2.3 mph - N/A   Partly Cloudy
11:00 PM 75.2 °F - 69.8 °F 83% 30.12 in 6.2 mi East 3.5 mph - N/A   Partly Cloudy